This is the latest recevied weather packets stored in our database for station/object NR6G-12. If no packets are shown the sender has not sent any weather packets the latest 10 day(s).
| Time | Temp. | Humidity | Pressure | Rain* | Wind** | Luminosity | Snow |
|---|---|---|---|---|---|---|---|
| 1777526161 | 11.11° C | 64% | 1016.7 hPa | 0 mm | - | - | - |
| 1777525801 | 11.11° C | 63% | 1016.7 hPa | 0 mm | - | - | - |
| 1777525441 | 10.56° C | 63% | 1016.7 hPa | 0 mm | - | - | - |
| 1777525081 | 10.56° C | 64% | 1016.7 hPa | 0 mm | - | - | - |
| 1777524721 | 10.56° C | 65% | 1016.6 hPa | 0 mm | - | - | - |
| 1777524361 | 10.56° C | 65% | 1016.6 hPa | 0 mm | - | - | - |
| 1777524001 | 10.56° C | 64% | 1016.6 hPa | 0 mm | - | - | - |
| 1777523641 | 11.11° C | 63% | 1016.6 hPa | 0 mm | - | - | - |
| 1777523281 | 11.11° C | 62% | 1016.7 hPa | 0 mm | - | - | - |
| 1777522921 | 11.11° C | 61% | 1016.7 hPa | 0 mm | - | - | - |
| 1777522561 | 11.11° C | 61% | 1016.7 hPa | 0 mm | - | - | - |
| 1777522201 | 11.11° C | 61% | 1016.6 hPa | 0 mm | - | - | - |
| 1777521841 | 11.11° C | 61% | 1016.6 hPa | 0 mm | - | - | - |
| 1777521481 | 11.11° C | 62% | 1016.5 hPa | 0 mm | - | - | - |
| 1777520761 | 11.67° C | 60% | 1016.4 hPa | 0 mm | - | - | - |
| 1777518961 | 11.67° C | 54% | 1016.3 hPa | 0 mm | - | - | - |
| 1777518241 | 11.67° C | 56% | 1016.2 hPa | 0 mm | - | - | - |
| 1777517881 | 11.67° C | 55% | 1016.1 hPa | 0 mm | - | - | - |
| 1777517161 | 12.22° C | 54% | 1016.1 hPa | 0 mm | - | - | - |
| 1777516081 | 12.78° C | 52% | 1016 hPa | 0 mm | - | - | - |
| 1777515001 | 13.33° C | 53% | 1016 hPa | 0 mm | - | - | - |
| 1777514641 | 13.33° C | 51% | 1016 hPa | 0 mm | - | - | - |
| 1777514281 | 13.33° C | 50% | 1015.9 hPa | 0 mm | - | - | - |
| 1777512841 | 13.89° C | 53% | 1015.9 hPa | 0 mm | - | - | - |
| 1777512121 | 14.44° C | 55% | 1015.9 hPa | 0 mm | - | - | - |
* Rain latest hour (hover to see other rain measurements)
** Current wind speed in m/s (hover to see current wind gust speed)